Location: Breitenfeld
(46.8500°N, 15.6333°E)
Time: 23:32:31
(UTC+00:00)

STARLINK-1240 - Pass Details

Date: 09 April 2020
Orbit: 549 x 550 km, 53.0° (Epoch: 03 June)

Event Time Altitude Azimuth Distance (km) Brightness Sun altitude
Rises 18:34:38 0° 296° (WNW) 2,728 9.5 -10.0°
Reaches altitude 10° 18:36:57 10° 303° (WNW) 1,833 7.8 -10.4°
Maximum altitude 18:40:59 47° 18° (NNE) 734 4.3 -11.0°
Enters shadow 18:44:18 14° 90° (E) 1,560 5.4 -11.5°
